Regional Weather Roundup
Issued by NWS Cleveland, OH

Home | Current Version | Previous Version | Graphics & Text | Print | Product List | Glossary On
Versions: 1 2 3 4 5 6 7 8 9 10 11 12 13 14 15 16 17 18 19 20 21 22 23 24 25 26 27 28 29 30 31 32 33 34 35 36 37 38 39 40 41 42 43 44 45 46 47 48 49 50
000
ASUS41 KCLE 261810
RWRCLE
OHIO REGIONAL WEATHER ROUNDUP
NATIONAL WEATHER SERVICE WILMINGTON, OH
100 PM EST FRI DEC 26 2014

NOTE: "FAIR" INDICATES FEW OR NO CLOUDS BELOW 12,000 FEET WITH NO
SIGNIFICANT WEATHER AND/OR OBSTRUCTIONS TO VISIBILITY.

OHZ001>008-015>018-024>027-034-035-043-044-261900-
   NORTHWEST OHIO

CITY           SKY/WX    TMP DP  RH WIND       PRES   REMARKS
DEFIANCE       FAIR      46  37  71 SW15      30.11F
FINDLAY        FAIR      48  38  68 SW16      30.12F
TOLEDO EXPRESS FAIR      45  35  68 SW10      30.10F
TOLEDO METCALF FAIR      46  35  65 SW18      30.12F
LIMA           FAIR      47  36  65 SW14      30.13F
$$

OHZ009>014-019>023-028>033-038-089-261900-
   NORTHEAST OHIO

CITY           SKY/WX    TMP DP  RH WIND       PRES   REMARKS
CLE-HOPKINS    FAIR      47  34  60 SW12      30.17F
CLE-LAKEFRONT  FAIR      49  34  56 S12       30.14F
CUY CO. ARPT   MOSUNNY   48  36  61 S16       30.15F
LORAIN-ELYRIA  FAIR      46  36  68 SW14      30.15F
ASHTABULA      FAIR      45  34  65 S12       30.16F
AKRON-CANTON   FAIR      47  34  60 SW15      30.17F
WOOSTER        FAIR      44  36  73 S12       30.16F
MANSFIELD      FAIR      47  36  65 S14       30.15F
YOUNGSTOWN     FAIR      45  34  65 S9        30.16F
$$

OHZ042-051>053-060>062-070>072-077>081-261900-
  SOUTHWEST OHIO

CITY           SKY/WX    TMP DP  RH WIND       PRES   REMARKS
CINC-COVINGTON PTSUNNY   49  35  58 SW8       30.20F
CINC-LUNKEN    FAIR      51  38  60 SW13      30.21F
HAMILTON       FAIR      50  36  58 SW9       30.20F
DAYTON         PTSUNNY   47  37  68 SW15      30.17F
WRIGHT-PAT AFB FAIR      49  37  63 SW13      30.17F
DAYTON GENERAL FAIR      47  37  68 SW10      30.17F
WILMINGTON     FAIR      47  37  68 S12       30.19F
$$

OHZ036-037-039>041-045>050-054>059-063>069-073>076-082>088-261900-
  CENTRAL AND SOUTHEAST OHIO

CITY           SKY/WX    TMP DP  RH WIND       PRES   REMARKS
COLUMBUS       PTSUNNY   44  35  70 SW9       30.20F
OSU AIRPORT    FAIR      45  35  68 S12       30.19F
BOLTON FIELD   SUNNY     45  37  76 SW12      30.21F
RICKENBACK AFB FAIR      45  37  72 S10       30.21F
NEWARK         FAIR      47  37  68 S10       30.20F
MARION         FAIR      46  36  68 SW16      30.17F
LANCASTER      FAIR      47  37  68 S12       30.22F
ZANESVILLE     FAIR      45  35  68 S8        30.22F
NEW PHILLY     FAIR      47  34  60 VRB6      30.20F
$$



USA.gov is the U.S. government's official web portal to all federal, state and local government web resources and services.